Weather History for KPIA - November, 2010

Change the Weather History Date:

Friday, November 12, 2010

  Actual Average Record
Temperature  
Mean Temperature 60 °F 44 °F  
Max Temperature 72 °F 52 °F 75 °F (1902)
Min Temperature 47 °F 35 °F 9 °F (1986)
Degree Days  
Heating Degree Days 5 21  
Month to date heating degree days 196 227  
Since 1 July heating degree days 533 673  
Cooling Degree Days 0 0  
Month to date cooling degree days 0 0  
Year to date cooling degree days 1316 1039  
Growing Degree Days 9 (Base 50)    
Moisture  
Dew Point 41 °F    
Average Humidity 62    
Maximum Humidity 93    
Minimum Humidity 31    
Precipitation  
Precipitation T in 0.10 in 0.94 in (1951)
Month to date precipitation 0.14 1.23  
Year to date precipitation 38.76 32.17  
Snow  
Snow 0.00 in 0.00 in 3.40 in (1959)
Month to date snowfall 0.0 0.1  
Since 1 July snowfall 0.0 0.1  
Since 1 September snowfall 0.0 0.1  
Snow Depth 0.00 in    
Sea Level Pressure  
Sea Level Pressure 30.22 in    
Wind  
Wind Speed 8 mph (ESE)    
Max Wind Speed 16 mph    
Max Gust Speed 20 mph    
Visibility 9 miles    
Events Rain    
T = Trace of Precipitation, MM = Missing Value Source: NWS Daily Summary

Daily Weather History Graph

Daily Weather History Graph

Search for Another Location

Airport or City:

Trip Planner

Search our weather history database for the weather conditions in past years. The results will help you decide how hot, cold, wet, or windy it might be!

Date:

Astronomy

Nov. 12, 2010 Rise Set
Actual Time 6:41 AM CST 4:43 PM CST
Civil Twilight 6:12 AM CST 5:12 PM CST
Nautical Twilight 5:39 AM CST 5:45 PM CST
Astronomical Twilight 5:07 AM CST 6:17 PM CST
Moon 12:11 PM CST (11/12) 10:51 PM CST (11/12)
Length of Visible Light 10h 59m
Length of Day
10h 01m
Waxing Crescent, 41% of the Moon is Illuminated
Nov 12
Waxing Crescent
Nov 13
First Quarter
Nov 21
Full
Nov 28
Last Quarter
Dec 5
New

Hourly Weather History & Observations

Time (CST) Temp. Dew Point Humidity Pressure Visibility Wind Dir Wind Speed Gust Speed Precip Events Conditions
12:54 AM 46.9 °F 43.0 °F 86% 30.34 in 10.0 mi NE 5.8 mph - N/A   Clear
1:54 AM 48.0 °F 44.1 °F 86% 30.32 in 10.0 mi ENE 10.4 mph - N/A   Overcast
2:54 AM 48.0 °F 44.1 °F 86% 30.33 in 10.0 mi NNW 3.5 mph - N/A   Clear
3:54 AM 46.9 °F 43.0 °F 86% 30.32 in 10.0 mi NE 5.8 mph - N/A   Clear
4:54 AM 46.9 °F 44.1 °F 90% 30.32 in 10.0 mi ENE 9.2 mph - N/A   Scattered Clouds
5:54 AM 48.0 °F 44.1 °F 86% 30.32 in 10.0 mi ENE 11.5 mph - N/A   Partly Cloudy
6:54 AM 46.9 °F 43.0 °F 86% 30.33 in 8.0 mi East 9.2 mph - N/A   Clear
7:54 AM 48.9 °F 44.1 °F 83% 30.32 in 7.0 mi East 9.2 mph - N/A   Clear
8:54 AM 51.1 °F 45.0 °F 80% 30.31 in 6.0 mi East 9.2 mph - N/A   Haze
9:54 AM 57.0 °F 46.9 °F 69% 30.31 in 7.0 mi East 5.8 mph - N/A   Clear
10:54 AM 62.1 °F 46.9 °F 58% 30.29 in 7.0 mi SE 3.5 mph - N/A   Clear
11:54 AM 68.0 °F 45.0 °F 43% 30.25 in 10.0 mi SSE 8.1 mph - N/A   Clear
12:54 PM 70.0 °F 42.1 °F 36% 30.21 in 10.0 mi South 12.7 mph - N/A   Clear
1:54 PM 72.0 °F 39.9 °F 31% 30.19 in 10.0 mi South 9.2 mph - N/A   Clear
2:54 PM 68.0 °F 39.9 °F 36% 30.17 in 10.0 mi South 6.9 mph - N/A   Clear
3:54 PM 69.1 °F 39.0 °F 33% 30.16 in 10.0 mi SSE 5.8 mph - N/A   Mostly Cloudy
4:54 PM 68.0 °F 37.9 °F 33% 30.14 in 10.0 mi ESE 4.6 mph - N/A   Overcast
5:54 PM 66.9 °F 37.9 °F 34% 30.14 in 10.0 mi ESE 6.9 mph - N/A   Overcast
6:54 PM 64.9 °F 37.0 °F 36% 30.12 in 10.0 mi SE 9.2 mph - N/A   Overcast
7:54 PM 64.4 °F 35.6 °F 34% 30.11 in 10.0 mi SE 11.5 mph 18.4 mph N/A   Overcast
8:54 PM 64.0 °F 35.1 °F 34% 30.10 in 10.0 mi SE 10.4 mph - N/A   Overcast
9:54 PM 62.1 °F 36.0 °F 38% 30.08 in 10.0 mi SE 10.4 mph - 0.00 in Rain Light Rain
10:54 PM 60.1 °F 36.0 °F 41% 30.06 in 10.0 mi ESE 6.9 mph - 0.00 in Rain Light Rain
11:54 PM 60.8 °F 35.6 °F 39% 30.04 in 10.0 mi SE 4.6 mph - N/A   Overcast